KG6QPT Weather Reports


Display with metric or nautical units.
time (UTC)temp
F
wind
direction
speed
MPH
gust
MPH
rain 1hr
in
rain 24hr
in
rain mn
in
humidity
%
barometer
mb
20181212143843 27 201 0.0 0.0 0.00 0.00 0.00
20181212134855 28 201 0.0 0.0 0.00 0.00 0.00
20181212133858 28 201 0.0 0.0 0.00 0.00 0.00
20181212131903 28 132 0.0 0.0 0.00 0.00 0.00
20181212125908 28 48 0.0 0.0 0.00 0.00 0.00
20181212124911 28 48 0.0 0.0 0.00 0.00 0.00
20181212122916 28 48 0.0 0.0 0.00 0.00 0.00
20181212120921 28 48 0.0 0.0 0.00 0.00 0.00
20181212115923 29 48 0.0 0.0 0.00 0.00 0.00
20181212114926 28 48 0.0 0.0 0.00 0.00 0.00
20181212113929 29 48 0.0 0.0 0.00 0.00 0.00
20181212112931 29 76 1.0 1.0 0.00 0.00 0.00
20181212100952 29 44 0.0 0.0 0.00 0.00 0.00
20181212093959 29 44 0.0 0.0 0.00 0.00 0.00
20181212075011 28 44 0.0 0.0 0.00 0.00 0.00
20181212074013 29 53 1.0 1.0 0.00 0.00 0.00
20181212073016 28 37 2.0 2.0 0.00 0.00 0.00
20181212072018 28 51 2.0 2.0 0.00 0.00 0.00
20181212064025 29 28 0.0 0.0 0.00 0.00 0.00
20181212063029 29 28 0.0 0.0 0.00 0.00 0.00
20181212044046 30 11 0.0 3.0 0.00 0.00 0.00
20181212041054 30 27 0.0 0.0 0.00 0.00 0.00
20181212035100 31 27 0.0 0.0 0.00 0.00 0.00
20181212034101 30 27 0.0 0.0 0.00 0.00 0.00
20181212033104 30 27 0.0 0.0 0.00 0.00 0.00
20181212030110 31 55 0.0 0.0 0.00 0.00 0.00
20181212025113 31 52 1.0 1.0 0.00 0.00 0.00
20181212024116 32 55 0.0 0.0 0.00 0.00 0.00
20181212023119 32 55 0.0 0.0 0.00 0.00 0.00
20181212013133 35 49 1.0 1.0 0.00 0.00 0.00
20181212010141 37 198 0.0 0.0 0.00 0.00 0.00
20181212002152 38 198 0.0 0.0 0.00 0.00 0.00
20181212000157 40 198 0.0 0.0 0.00 0.00 0.00
20181211235200 41 198 0.0 0.0 0.00 0.00 0.00
20181211234204 43 198 0.0 0.0 0.00 0.00 0.00
20181211232207 44 198 0.0 0.0 0.00 0.00 0.00
20181211231210 45 198 0.0 0.0 0.00 0.00 0.00
20181211225213 46 198 0.0 0.0 0.00 0.00 0.00
20181211223217 47 211 0.0 0.0 0.00 0.00 0.00
20181211222220 47 224 0.0 0.0 0.00 0.00 0.00
20181211220225 47 262 0.0 0.0 0.00 0.00 0.00
20181211215225 49 208 2.0 1.0 0.00 0.00 0.00
20181211213230 49 210 1.0 0.0 0.00 0.00 0.00
20181211212233 49 222 3.0 1.0 0.00 0.00 0.00
20181211210237 49 162 1.0 0.0 0.00 0.00 0.00
20181211204242 50 188 2.0 3.0 0.00 0.00 0.00
20181211195254 50 39 0.0 0.0 0.00 0.00 0.00
20181211193300 52 39 0.0 0.0 0.00 0.00 0.00
20181211192301 51 39 0.0 0.0 0.00 0.00 0.00
20181211183309 45 39 0.0 0.0 0.00 0.00 0.00
20181211181314 45 39 0.0 0.0 0.00 0.00 0.00
20181211165330 31 62 2.0 1.0 0.00 0.00 0.00
20181211160341 20 20 0.0 0.0 0.00 0.00 0.00
20181211154347 21 20 0.0 0.0 0.00 0.00 0.00
20181211153349 21 20 0.0 0.0 0.00 0.00 0.00
20181211152352 20 20 0.0 0.0 0.00 0.00 0.00
20181211151355 20 20 0.0 0.0 0.00 0.00 0.00
20181211145401 21 20 0.0 0.0 0.00 0.00 0.00
20181211143404 20 20 0.0 0.0 0.00 0.00 0.00
20181211142406 21 20 0.0 0.0 0.00 0.00 0.00
20181211140411 21 20 0.0 0.0 0.00 0.00 0.00
20181211134416 21 20 0.0 0.0 0.00 0.00 0.00
20181211133419 22 20 0.0 0.0 0.00 0.00 0.00
20181211132421 22 20 0.0 0.0 0.00 0.00 0.00
20181211130427 22 20 0.0 0.0 0.00 0.00 0.00
20181211125521 22 20 0.0 0.0 0.00 0.00 0.00
20181211125430 22 20 0.0 0.0 0.00 0.00 0.00
20181211122437 22 20 0.0 0.0 0.00 0.00 0.00
20181211121440 22 20 0.0 0.0 0.00 0.00 0.00
20181211120442 22 20 0.0 0.0 0.00 0.00 0.00
20181211114446 22 20 0.0 0.0 0.00 0.00 0.00
20181211113449 22 20 0.0 0.0 0.00 0.00 0.00
20181211105459 23 20 0.0 0.0 0.00 0.00 0.00
20181211104502 23 20 0.0 0.0 0.00 0.00 0.00
20181211102507 24 20 0.0 0.0 0.00 0.00 0.00
20181211100511 23 20 0.0 0.0 0.00 0.00 0.00
20181211094516 24 20 0.0 0.0 0.00 0.00 0.00
20181211093519 24 20 0.0 0.0 0.00 0.00 0.00
20181211092522 24 20 0.0 0.0 0.00 0.00 0.00
20181211082536 25 20 0.0 0.0 0.00 0.00 0.00
20181211074547 26 49 1.0 1.0 0.00 0.00 0.00
20181211073549 26 48 0.0 2.0 0.00 0.00 0.00
20181211072551 26 46 1.0 1.0 0.00 0.00 0.00
20181211071554 26 73 1.0 1.0 0.00 0.00 0.00
20181211065559 26 68 0.0 0.0 0.00 0.00 0.00
20181211064602 27 68 0.0 0.0 0.00 0.00 0.00
20181211063604 27 68 0.0 0.0 0.00 0.00 0.00
20181211062606 26 68 0.0 0.0 0.00 0.00 0.00
20181211061609 27 68 0.0 0.0 0.00 0.00 0.00
20181211060612 27 68 0.0 0.0 0.00 0.00 0.00
20181211055614 27 68 0.0 0.0 0.00 0.00 0.00
20181211052622 28 68 0.0 0.0 0.00 0.00 0.00
20181211051623 28 68 0.0 0.0 0.00 0.00 0.00
20181211045627 29 68 0.0 0.0 0.00 0.00 0.00
20181211044630 28 68 0.0 0.0 0.00 0.00 0.00
20181211042635 29 68 0.0 0.0 0.00 0.00 0.00
20181211035642 29 68 0.0 0.0 0.00 0.00 0.00
20181211033647 29 68 0.0 0.0 0.00 0.00 0.00
20181211032649 30 68 0.0 0.0 0.00 0.00 0.00
20181211022703 31 68 0.0 0.0 0.00 0.00 0.00
20181211020656 32 68 0.0 0.0 0.00 0.00 0.00
20181211014701 33 68 0.0 0.0 0.00 0.00 0.00
20181211012705 34 68 0.0 0.0 0.00 0.00 0.00
20181211001719 37 68 0.0 0.0 0.00 0.00 0.00
20181210234727 39 68 0.0 0.0 0.00 0.00 0.00
20181210232731 41 68 0.0 0.0 0.00 0.00 0.00
20181210231733 41 68 0.0 0.0 0.00 0.00 0.00
20181210225738 41 8 0.0 0.0 0.00 0.00 0.00
20181210223743 43 105 0.0 1.0 0.00 0.00 0.00
20181210220750 43 293 0.0 0.0 0.00 0.00 0.00
20181210211800 43 63 0.0 0.0 0.00 0.00 0.00
20181210202811 42 174 3.0 1.0 0.00 0.00 0.00
20181210201813 41 160 0.0 0.0 0.00 0.00 0.00
20181210200816 41 198 1.0 1.0 0.00 0.00 0.00
20181210192823 38 60 0.0 0.0 0.00 0.00 0.00
20181210191826 38 60 0.0 0.0 0.00 0.00 0.00
20181210190827 37 60 0.0 0.0 0.00 0.00 0.00
20181210182836 36 60 0.0 0.0 0.00 0.00 0.00
20181210181839 35 37 1.0 1.0 0.00 0.00 0.00
20181210180841 34 55 2.0 1.0 0.00 0.00 0.00
20181210175844 33 41 0.0 0.0 0.00 0.00 0.00
20181210174846 32 41 0.0 0.0 0.00 0.00 0.00
20181210173849 32 41 0.0 0.0 0.00 0.00 0.00
20181210171853 31 41 0.0 0.0 0.00 0.00 0.00
20181210163903 30 41 0.0 0.0 0.00 0.00 0.00
20181210162903 29 41 0.0 0.0 0.00 0.00 0.00
20181210140937 29 248 0.0 0.0 0.00 0.00 0.00
20181210134942 29 248 0.0 0.0 0.00 0.00 0.00
20181210130949 28 248 0.0 0.0 0.00 0.00 0.00
20181210121953 29 248 0.0 0.0 0.00 0.00 0.00
20181210115958 29 248 0.0 0.0 0.00 0.00 0.00
20181210110012 29 248 0.0 0.0 0.00 0.00 0.00
20181210105014 28 66 0.0 0.0 0.00 0.00 0.00
20181210104017 28 72 3.0 2.0 0.00 0.00 0.00
20181210103019 28 52 0.0 0.0 0.00 0.00 0.00
20181210102021 27 52 0.0 0.0 0.00 0.00 0.00
20181210095028 27 52 0.0 0.0 0.00 0.00 0.00
20181210093033 27 52 0.0 0.0 0.00 0.00 0.00
20181210092036 27 52 0.0 0.0 0.00 0.00 0.00
20181210091037 27 52 0.0 0.0 0.00 0.00 0.00
20181210090042 27 52 0.0 0.0 0.00 0.00 0.00
20181210084045 27 52 0.0 0.0 0.00 0.00 0.00
20181210082046 27 52 0.0 0.0 0.00 0.00 0.00
20181210075048 27 52 0.0 0.0 0.00 0.00 0.00
20181210074046 27 52 0.0 0.0 0.00 0.00 0.00
20181210073048 27 52 0.0 0.0 0.00 0.00 0.00
20181210062102 29 35 0.0 0.0 0.00 0.00 0.00
20181210061105 29 35 0.0 0.0 0.00 0.00 0.00
20181210054112 29 35 0.0 0.0 0.00 0.00 0.00
20181210052117 30 35 0.0 0.0 0.00 0.00 0.00
20181210051120 30 52 1.0 1.0 0.00 0.00 0.00
20181210050122 29 35 1.0 2.0 0.00 0.00 0.00
20181210043132 30 45 0.0 0.0 0.00 0.00 0.00
20181210041135 31 45 0.0 0.0 0.00 0.00 0.00
20181210034143 32 45 0.0 0.0 0.00 0.00 0.00
20181210032149 32 45 0.0 0.0 0.00 0.00 0.00
20181210031150 32 45 0.0 0.0 0.00 0.00 0.00
20181210022203 34 24 1.0 2.0 0.00 0.00 0.00
20181210015209 34 65 0.0 0.0 0.00 0.00 0.00
20181210014212 34 65 0.0 0.0 0.00 0.00 0.00
20181210010221 37 35 0.0 0.0 0.00 0.00 0.00
20181210005222 36 42 1.0 1.0 0.00 0.00 0.00
20181210001229 39 49 2.0 3.0 0.00 0.00 0.00
20181209235234 40 288 0.0 0.0 0.00 0.00 0.00
20181209232240 42 45 2.0 1.0 0.00 0.00 0.00
20181209230244 42 53 2.0 2.0 0.00 0.00 0.00
20181209224250 43 52 1.0 2.0 0.00 0.00 0.00
20181209205316 47 163 0.0 0.0 0.00 0.00 0.00
20181209202311 49 208 0.0 0.0 0.00 0.00 0.00
20181209200316 49 15 0.0 0.0 0.00 0.00 0.00
20181209195319 49 15 0.0 0.0 0.00 0.00 0.00
20181209192326 49 15 0.0 0.0 0.00 0.00 0.00
20181209190331 48 15 0.0 0.0 0.00 0.00 0.00
20181209183337 43 15 0.0 0.0 0.00 0.00 0.00
20181209180345 40 15 0.0 0.0 0.00 0.00 0.00
20181209170355 28 15 0.0 0.0 0.00 0.00 0.00
20181209161407 25 15 0.0 0.0 0.00 0.00 0.00
20181209145411 23 15 0.0 0.0 0.00 0.00 0.00
20181209140422 23 15 0.0 0.0 0.00 0.00 0.00
20181209135422 23 15 0.0 0.0 0.00 0.00 0.00
20181209114445 24 15 0.0 0.0 0.00 0.00 0.00
20181209065553 27 15 0.0 0.0 0.00 0.00 0.00
20181209052612 29 15 0.0 0.0 0.00 0.00 0.00
20181209050617 29 53 0.0 0.0 0.00 0.00 0.00
20181209045618 29 59 2.0 2.0 0.00 0.00 0.00
20181209044620 28 190 0.0 0.0 0.00 0.00 0.00
20181209032640 30 190 0.0 0.0 0.00 0.00 0.00
20181209024652 32 190 0.0 0.0 0.00 0.00 0.00
20181208170900 37 158 0.0 0.0 0.00 0.00 0.00
20181208084102 28 158 0.0 0.0 0.00 0.00 0.00
20181208082107 28 158 0.0 0.0 0.00 0.00 0.00
20181208081109 28 158 0.0 0.0 0.00 0.00 0.00
20181208080112 28 158 0.0 0.0 0.00 0.00 0.00
20181208075114 28 158 0.0 0.0 0.00 0.00 0.00
20181208073120 28 158 0.0 0.0 0.00 0.00 0.00
20181208072122 29 158 0.0 0.0 0.00 0.00 0.00
20181208071125 29 158 0.0 0.0 0.00 0.00 0.00
20181208070128 29 158 0.0 0.0 0.00 0.00 0.00
20181208063135 30 158 0.0 0.0 0.00 0.00 0.00
20181208061141 29 158 0.0 0.0 0.00 0.00 0.00
20181208060145 29 158 0.0 0.0 0.00 0.00 0.00
20181208055148 30 158 0.0 0.0 0.00 0.00 0.00
20181208054149 30 158 0.0 0.0 0.00 0.00 0.00
20181208053151 30 158 0.0 0.0 0.00 0.00 0.00
20181208052154 30 158 0.0 0.0 0.00 0.00 0.00
20181208050159 30 158 0.0 0.0 0.00 0.00 0.00
20181208045201 30 158 0.0 0.0 0.00 0.00 0.00
20181208043207 31 158 0.0 0.0 0.00 0.00 0.00
20181208041212 31 158 0.0 0.0 0.00 0.00 0.00
20181208034219 31 158 0.0 0.0 0.00 0.00 0.00
20181208031227 32 158 0.0 0.0 0.00 0.00 0.00
20181208030230 32 158 0.0 0.0 0.00 0.00 0.00
20181208025232 33 158 0.0 0.0 0.00 0.00 0.00
20181208024235 33 158 0.0 0.0 0.00 0.00 0.00
20181208022239 34 158 0.0 0.0 0.00 0.00 0.00
20181208015246 35 158 0.0 0.0 0.00 0.00 0.00
20181208013252 35 158 0.0 0.0 0.00 0.00 0.00
20181208011257 35 158 0.0 0.0 0.00 0.00 0.00
20181208010259 35 158 0.0 0.0 0.00 0.00 0.00
20181208004304 37 158 0.0 0.0 0.00 0.00 0.00
20181208003306 38 158 0.0 0.0 0.00 0.00 0.00
20181207234319 41 158 0.0 0.0 0.00 0.00 0.00
20181207233321 41 158 0.0 0.0 0.00 0.00 0.00
20181207232324 42 158 0.0 0.0 0.00 0.00 0.00
20181207230329 43 158 0.0 0.0 0.00 0.00 0.00
20181207222337 45 155 0.0 0.0 0.00 0.00 0.00
20181207221339 45 197 0.0 1.0 0.00 0.00 0.00
20181207204353 47 173 0.0 0.0 0.00 0.00 0.00
20181207202358 47 212 0.0 0.0 0.00 0.00 0.00
20181207201401 48 174 1.0 0.0 0.00 0.00 0.00
20181207200402 49 174 2.0 2.0 0.00 0.00 0.00
20181207193409 52 210 0.0 0.0 0.00 0.00 0.00
20181207184421 48 210 0.0 0.0 0.00 0.00 0.00
20181207182426 48 210 0.0 0.0 0.00 0.00 0.00
20181207175434 45 210 0.0 0.0 0.00 0.00 0.00
20181207174436 44 210 0.0 0.0 0.00 0.00 0.00
20181207172440 41 210 0.0 0.0 0.00 0.00 0.00
20181207164433 35 210 0.0 0.0 0.00 0.00 0.00
20181207163435 35 210 0.0 0.0 0.00 0.00 0.00
20181207160441 29 210 0.0 0.0 0.00 0.00 0.00
20181207144501 29 210 0.0 0.0 0.00 0.00 0.00
20181207143504 29 210 0.0 0.0 0.00 0.00 0.00
20181207142506 30 210 0.0 0.0 0.00 0.00 0.00
20181207132520 30 210 0.0 0.0 0.00 0.00 0.00
20181207125528 30 210 0.0 0.0 0.00 0.00 0.00
20181207124530 30 210 0.0 0.0 0.00 0.00 0.00
20181207123532 31 210 0.0 0.0 0.00 0.00 0.00
20181207122534 30 210 0.0 0.0 0.00 0.00 0.00
20181207121536 30 210 0.0 0.0 0.00 0.00 0.00
20181207114543 31 210 0.0 0.0 0.00 0.00 0.00
20181207113545 31 210 0.0 0.0 0.00 0.00 0.00
20181207104558 32 210 0.0 0.0 0.00 0.00 0.00
20181207103601 32 210 0.0 0.0 0.00 0.00 0.00
20181207102603 32 210 0.0 0.0 0.00 0.00 0.00
20181207100608 33 210 0.0 0.0 0.00 0.00 0.00
20181207095610 33 210 0.0 0.0 0.00 0.00 0.00
20181207094613 34 210 0.0 0.0 0.00 0.00 0.00
20181207093616 34 210 0.0 0.0 0.00 0.00 0.00
20181207091632 33 210 0.0 0.0 0.00 0.00 0.00
20181207082634 34 210 0.0 0.0 0.00 0.00 0.00
20181207080640 33 210 0.0 0.0 0.00 0.00 0.00
20181207073648 34 210 0.0 0.0 0.00 0.18 0.00
20181207070656 34 210 0.0 0.0 0.00 0.18 0.00
20181207065658 34 210 0.0 0.0 0.00 0.18 0.00
20181207061709 34 210 0.0 0.0 0.00 0.18 0.00
20181207060711 34 210 0.0 0.0 0.00 0.18 0.00
20181207055714 34 210 0.0 0.0 0.00 0.18 0.00
20181207054717 35 210 0.0 0.0 0.00 0.18 0.00
20181207052722 35 210 0.0 0.0 0.00 0.18 0.00
20181207050728 34 210 0.0 0.0 0.00 0.18 0.00
20181207045731 35 210 0.0 0.0 0.00 0.18 0.00
20181207044733 35 210 0.0 0.0 0.00 0.18 0.00
20181207042739 35 210 0.0 0.0 0.00 0.18 0.00
20181207035747 36 210 0.0 0.0 0.00 0.18 0.00
20181207033753 35 210 0.0 0.0 0.00 0.18 0.00
20181207025804 36 210 0.0 0.0 0.00 0.18 0.00
20181207020811 36 210 0.0 0.0 0.00 0.18 0.00
20181207015814 36 210 0.0 0.0 0.00 0.18 0.00
20181207005830 38 210 0.0 0.0 0.00 0.18 0.00
20181207003836 39 210 0.0 0.0 0.00 0.18 0.00
20181207000845 40 210 0.0 0.0 0.00 0.18 0.00
20181206231859 41 221 0.0 0.0 0.00 0.18 0.00
20181206230902 41 225 2.0 2.0 0.00 0.18 0.00
20181206220915 44 58 0.0 0.0 0.00 0.18 0.00
20181206203937 46 141 0.0 0.0 0.00 0.18 0.00
20181206201942 48 111 0.0 0.0 0.00 0.18 0.00
20181206195945 50 127 0.0 2.0 0.00 0.18 0.00
20181206193951 50 141 0.0 0.0 0.00 0.18 0.00
20181206192954 51 141 0.0 0.0 0.00 0.18 0.00
20181206191000 51 104 0.0 0.0 0.00 0.18 0.00
20181206185005 51 104 0.0 0.0 0.00 0.18 0.00
20181206183011 52 34 0.0 0.0 0.00 0.18 0.00
20181206182014 51 34 0.0 0.0 0.00 0.18 0.00
20181206181017 50 34 0.0 0.0 0.00 0.18 0.00
20181206180020 49 34 0.0 0.0 0.00 0.18 0.00
20181206174026 48 34 0.0 0.0 0.00 0.18 0.00
20181206173029 45 34 0.0 0.0 0.00 0.18 0.00
20181206164043 37 34 0.0 0.0 0.00 0.18 0.00
20181206155056 32 34 0.0 0.0 0.00 0.18 0.00
20181206153101 31 34 0.0 0.0 0.00 0.18 0.00
20181206152104 32 34 0.0 0.0 0.00 0.18 0.00
20181206150109 32 34 0.0 0.0 0.00 0.18 0.00
20181206145113 31 34 0.0 0.0 0.00 0.18 0.00
20181206143117 32 34 0.0 0.0 0.00 0.18 0.00
20181206141112 33 34 0.0 0.0 0.00 0.18 0.00
20181206134119 32 34 0.0 0.0 0.00 0.18 0.00
20181206133121 33 34 0.0 0.0 0.00 0.18 0.00
20181206131127 33 34 0.0 0.0 0.00 0.18 0.00
20181206130129 33 34 0.0 0.0 0.00 0.18 0.00
20181206125132 33 34 0.0 0.0 0.00 0.18 0.00
20181206124135 33 34 0.0 0.0 0.00 0.18 0.00
20181206123138 32 34 0.0 0.0 0.00 0.18 0.00
20181206122141 33 34 0.0 0.0 0.00 0.18 0.00
20181206120146 33 34 0.0 0.0 0.00 0.18 0.00
20181206114151 33 34 0.0 0.0 0.00 0.18 0.00
20181206111200 32 34 0.0 0.0 0.00 0.18 0.00
20181206104208 32 34 0.0 0.0 0.00 0.18 0.00
20181206103211 32 34 0.0 0.0 0.00 0.18 0.00
20181206102214 33 34 0.0 0.0 0.00 0.18 0.00
20181206093225 32 34 0.0 0.0 0.00 0.18 0.00
20181206092228 33 34 0.0 0.0 0.00 0.18 0.00
20181206091231 32 34 0.0 0.0 0.00 0.18 0.00
20181206090234 33 34 0.0 0.0 0.00 0.18 0.00
20181206075254 32 34 0.0 0.0 0.00 0.00 0.18
20181206073300 33 34 0.0 0.0 0.00 0.00 0.18
20181206072306 32 34 0.0 0.0 0.00 0.00 0.18
20181206065311 32 34 0.0 0.0 0.00 0.00 0.18
20181206063318 32 34 0.0 0.0 0.00 0.00 0.18
20181206062320 32 59 0.0 0.0 0.00 0.00 0.18
20181206061323 32 59 0.0 0.0 0.00 0.00 0.18
20181206060326 32 59 0.0 0.0 0.00 0.00 0.18
20181206054332 33 59 0.0 0.0 0.00 0.00 0.18
20181206053335 32 59 0.0 0.0 0.00 0.00 0.18
20181206050344 32 59 0.0 0.0 0.00 0.00 0.18
20181206042352 33 4 0.0 0.0 0.00 0.00 0.18
20181206041355 33 4 0.0 0.0 0.00 0.00 0.18
20181206040358 34 4 0.0 0.0 0.00 0.00 0.18
20181206035401 33 4 0.0 0.0 0.00 0.00 0.18
20181206033407 33 4 0.0 0.0 0.00 0.00 0.18
20181206030416 34 4 0.0 0.0 0.00 0.00 0.18
20181206025418 34 4 0.0 0.0 0.00 0.00 0.18
20181206022427 35 4 0.0 0.0 0.00 0.00 0.18
20181206021430 35 155 0.0 0.0 0.00 0.00 0.18
20181206020433 35 155 0.0 0.0 0.00 0.00 0.18
20181206014424 35 155 0.0 0.0 0.00 0.00 0.18
20181206013427 35 155 0.0 0.0 0.00 0.00 0.18
20181206003443 37 155 0.0 0.0 0.00 0.00 0.18
20181206002445 37 155 0.0 0.0 0.00 0.00 0.18
20181206001447 38 155 0.0 0.0 0.00 0.00 0.18
20181205234456 38 155 0.0 0.0 0.00 0.00 0.18
20181205232502 39 155 0.0 0.0 0.00 0.00 0.18
20181205231505 39 155 0.0 0.0 0.00 0.00 0.18
20181205222517 40 155 0.0 0.0 0.00 0.00 0.18
20181205220523 39 155 0.0 0.0 0.00 0.00 0.18
20181205214528 40 155 0.0 0.0 0.03 0.00 0.18
20181205213531 39 155 0.0 0.0 0.03 0.00 0.18
20181205212533 38 155 0.0 0.0 0.03 0.00 0.18
20181205210539 38 155 0.0 0.0 0.03 0.00 0.18
20181205204544 38 155 0.0 0.0 0.00 0.00 0.18
20181205203546 37 155 0.0 0.0 0.00 0.00 0.18
20181205201552 37 155 0.0 0.0 0.00 0.00 0.17
20181205200554 37 155 0.0 0.0 0.00 0.00 0.16
20181205193600 37 155 0.0 0.0 0.03 0.00 0.15
20181205192602 37 155 0.0 0.0 0.03 0.00 0.15
20181205190607 36 155 0.0 0.0 0.03 0.00 0.15
20181205181614 35 155 0.0 0.0 0.02 0.00 0.13
20181205180615 35 155 0.0 0.0 0.02 0.00 0.12
20181205175618 34 155 0.0 0.0 0.00 0.00 0.12
20181205174620 34 155 0.0 0.0 0.00 0.00 0.12
20181205172625 33 155 0.0 0.0 0.00 0.00 0.10
20181205170631 34 155 0.0 0.0 0.00 0.00 0.10
20181205161642 33 155 0.0 0.0 0.02 0.00 0.10
20181205153650 33 155 0.0 0.0 0.01 0.00 0.09
20181205152653 32 155 0.0 0.0 0.01 0.00 0.09
20181205151656 32 155 0.0 0.0 0.01 0.00 0.09
20181205150658 32 155 0.0 0.0 0.01 0.00 0.08
20181205141709 32 155 0.0 0.0 0.00 0.00 0.07
20181205140712 33 155 0.0 0.0 0.00 0.00 0.07
20181205135714 32 155 0.0 0.0 0.00 0.00 0.07
20181205133719 32 155 0.0 0.0 0.00 0.00 0.07
20181205132722 32 155 0.0 0.0 0.00 0.00 0.07
20181205124731 31 155 0.0 0.0 0.00 0.00 0.07
20181205123733 32 155 0.0 0.0 0.00 0.00 0.07
20181205122736 32 155 0.0 0.0 0.00 0.00 0.07
20181205121737 32 155 0.0 0.0 0.00 0.00 0.07
20181205120740 32 155 0.0 0.0 0.00 0.00 0.07
20181205115742 32 155 0.0 0.0 0.01 0.00 0.07
20181205112752 32 155 0.0 0.0 0.01 0.00 0.07
20181205110755 32 155 0.0 0.0 0.01 0.00 0.07
20181205104800 32 155 0.0 0.0 0.05 0.00 0.06
20181205103803 32 155 0.0 0.0 0.05 0.00 0.06
20181205101809 32 155 0.0 0.0 0.05 0.00 0.06
20181205095814 32 155 0.0 0.0 0.01 0.00 0.06
20181205094817 32 155 0.0 0.0 0.01 0.00 0.05
20181205093819 32 155 0.0 0.0 0.01 0.00 0.03
20181205092822 32 155 0.0 0.0 0.01 0.00 0.01
20181205091825 32 155 0.0 0.0 0.01 0.00 0.01
20181205090827 32 155 0.0 0.0 0.01 0.00 0.01
20181205085830 32 155 0.0 0.0 0.00 0.00 0.01
20181205084832 32 155 0.0 0.0 0.00 0.00 0.00
20181205051925 32 6 1.0 0.0 0.00 0.01 0.00
20181205050928 33 13 0.0 0.0 0.00 0.01 0.00
20181205045930 32 30 0.0 0.0 0.00 0.01 0.00
20181205044933 32 18 1.0 0.0 0.00 0.01 0.00
20181205042936 33 63 0.0 0.0 0.00 0.01 0.00
20181205040942 33 6 0.0 0.0 0.00 0.01 0.00
20181205035944 32 6 0.0 0.0 0.00 0.01 0.00
20181205034947 32 6 0.0 0.0 0.00 0.01 0.00
20181205032950 33 6 0.0 0.0 0.00 0.01 0.00
20181205031952 32 6 0.0 0.0 0.00 0.01 0.00
20181205030954 33 6 0.0 0.0 0.00 0.01 0.00
20181205025957 33 6 0.0 0.0 0.00 0.01 0.00
20181205014012 34 6 0.0 0.0 0.00 0.01 0.00
20181205001035 34 6 0.0 0.0 0.00 0.01 0.00
20181204224059 36 6 0.0 0.0 0.00 0.01 0.00
20181204223103 36 6 0.0 0.0 0.00 0.01 0.00
20181204222105 36 6 0.0 0.0 0.00 0.01 0.00
20181204210124 36 25 2.0 0.0 0.00 0.01 0.00
20181204205126 36 35 0.0 0.0 0.00 0.01 0.00
20181204170220 33 167 0.0 0.0 0.00 0.01 0.00
20181204164226 32 167 0.0 0.0 0.00 0.01 0.00
20181204163228 32 167 0.0 0.0 0.00 0.01 0.00
20181204145249 32 167 0.0 0.0 0.00 0.01 0.00
20181204143255 32 167 0.0 0.0 0.00 0.01 0.00
20181204142256 31 167 0.0 0.0 0.00 0.01 0.00
20181204122326 31 167 0.0 0.0 0.00 0.01 0.00
20181204121329 31 167 0.0 0.0 0.00 0.01 0.00
20181204115334 31 167 0.0 0.0 0.00 0.01 0.00
20181204114336 31 167 0.0 0.0 0.00 0.01 0.00
20181204110346 30 167 0.0 0.0 0.00 0.01 0.00
20181204105349 31 167 0.0 0.0 0.00 0.01 0.00
20181204103352 31 167 0.0 0.0 0.00 0.01 0.00
20181204091412 31 167 0.0 0.0 0.00 0.01 0.00
20181204082423 31 167 0.0 0.0 0.00 0.01 0.00
20181204080428 31 167 0.0 0.0 0.00 0.01 0.00
20181204073436 31 167 0.0 0.0 0.00 0.01 0.01
20181204072439 31 167 0.0 0.0 0.00 0.01 0.01